{"data":{"norad_id":57628,"intl_designator":"2023-121C","name":"HEAD-3C","alt_names":[],"object_type":"PAYLOAD","status":"ACTIVE","operator":null,"country":"PRC","launch_date":"2023-08-14","launch_site_code":"XICLF","launch_vehicle":null,"mission":null,"orbit_class":"UNKNOWN","rcs_meters":null,"size_class":null,"mass_kg":null,"dimensions":null,"purposes":[],"wikipedia_slug":null,"has_3d_model":false,"image_url":null,"decayed_at":null,"tle_current":{"epoch":"2026-05-25T03:46:13.639584Z","epoch_age_seconds":65000,"freshness":"FRESH","line1":"1 57628U 23121C   26145.15710231  .00000674  00000+0  16430-3 0  9998","line2":"2 57628  44.9994  52.8650 0005107 152.8276 207.2850 14.62209429148364","mean_motion":14.62209429,"eccentricity":0.0005107,"inclination_deg":44.9994,"raan_deg":52.865,"arg_perigee_deg":152.8276,"mean_anomaly_deg":207.285,"bstar":0.0001643,"rev_number":14836,"period_min":98.481104788444,"perigee_km":682.4412479943,"apogee_km":689.6566075009,"semimajor_km":7064.1859277476,"source":"CELESTRAK","updated_at":"2026-05-25T13:38:00.149027Z"}}}